Location: Cedarbrook
(36.3103°N, 86.6422°W)
Time: 08:37:48
(UTC+00:00)

CZ-2D R/B - Pass Details

Date: 29 October 2020
Orbit: 522 x 537 km, 97.4° (Epoch: 04 December)

Event Time Altitude Azimuth Distance (km) Brightness Sun altitude
Rises 23:39:32 0° 146° (SSE) 2,648 6.6 -10.0°
Reaches altitude 10° 23:41:46 10° 136° (SE) 1,761 5.6 -10.4°
Maximum altitude 23:45:10 32° 73° (ENE) 921 3.9 -11.1°
Drops below altitude 10° 23:48:34 10° 10° (N) 1,767 5.7 -11.8°
Sets 23:50:49 0° 360° (N) 2,659 6.7 -12.2°
